Tracking 30923 objects as of 1-Jul-2025
HD Live streaming from Space Station
objects crossing your sky now

SHIYAN 22B (SY-22B)

Track SHIYAN 22B (SY-22B) now!
10-day predictions


NORAD ID: 55243
Int'l Code: 2023-006B
Perigee: 355.1 km
Apogee: 387.8 km
Inclination: 43.2 °
Period: 91.8 minutes
Semi major axis: 6742 km
RCS: Unknown
Launch date: January 13, 2023
Source: People's Republic of China (PRC)
Launch site: Jiuquan Satellite Launch Center, China (JSC)
Your satellite tracking list
Your tracking list is empty




NASA's NSSDC Master Catalog

Two Line Element Set (TLE):
1 55243U 23006B   25181.91660096  .00052436  00000-0  45143-3 0  9994
2 55243  43.1826 140.2402 0024254 128.9837 231.3197 15.68109611138065
Source of the keplerian elements: AFSPC